User: anonymous
Location: Unspecified
(0.0000°N, 0.0000°E)
Time: 11:05:43
(UTC+00:00)
Language:

CLOUDSAT - Orbit

View from above orbital plane
View from above orbital plane
View from above satellite
View from above satellite

Ground track
Ground track

The orbit data is extracted from the following two-line orbital elements,

1 29107U 06016A   14237.34239405  .00000214  00000-0  57493-4 0  7491
2 29107 098.2016 180.1057 0001597 069.7422 290.3959 14.57118245442905
Epoch (UTC): 25 August 2014 08:13:02
Eccentricity: 0.0001597
inclination: 98.2016°
perigee height: 701 km
apogee height: 703 km
right ascension of ascending node: 180.1057°
argument of perigee: 69.7422°
revolutions per day: 14.57118245
mean anomaly at epoch: 290.3959°
orbit number at epoch: 44290

The dashed part of the orbit path shows where the satellite is in the earth's shadow,  

DLR